[[{"header":{"parameterUnit":"m.s-1","parameterCategory":1,"la1":30.2991,"la2":30.254,"lo1":-89.0895,"lo2":-89.0444,"dy":0.0017,"dx":0.0017,"nx":28,"ny":28,"refTime":"2023-08-26T21:00:00:Z","depth":0,"parameterNumber":2,"parameterNumberName":"U-component_of_WINDS"},"data":[0,0,0,0,0,0,0,0,0,0,0,0,0,0,0,0,0,0,0,0,0,0,0,0,0,0,0,0,0,0,0,0,0,0,0,0,0,0,0,0,0,0,0,0,0,0,0,0,0,0,0,0,0,0,0,0,0,0,-2.1835,-2.1835,0,-2.1894,-2.1894,-2.1895,-2.1924,-2.1924,-2.1924,-2.1924,-2.1981,-2.1983,-2.1984,0,0,0,0,0,0,0,0,0,0,0,0,0,-2.1741,-2.1743,-2.1835,-2.1835,-2.1836,-2.1894,-2.1894,-2.1895,-2.1924,-2.1924,-2.1924,-2.1924,-2.1981,-2.1983,-2.1984,0,0,0,0,0,0,0,0,0,0,0,0,0,-2.1789,-2.1743,-2.1834,-2.1857,-2.186,-2.1893,-2.1894,-2.1895,-2.1924,-2.1924,-2.1924,-2.1924,-2.198,-2.1982,-2.1985,-2.1999,0,0,-2.1992,-2.1993,0,0,0,0,0,0,0,0,-2.1786,-2.1792,-2.1853,-2.1856,-2.1859,-2.1902,-2.1883,-2.193,-2.1924,-2.19,-2.1924,-2.1924,-2.1954,-2.1959,-2.197,-2.2001,-2.2004,-2.1992,-2.1993,-2.1994,-2.1995,0,0,0,0,0,0,0,-2.1783,-2.179,-2.1858,-2.1854,-2.1858,-2.1863,-2.187,-2.1892,-2.1926,-2.1902,-2.1904,-2.1911,-2.1956,-2.1968,-2.1971,-2.2005,-2.1992,-2.1994,-2.1995,-2.1996,-2.2048,-2.2048,0,0,0,0,0,0,-2.1777,-2.1787,-2.1856,-2.186,-2.1822,-2.1865,-2.1872,-2.1888,-2.1926,-2.1932,-2.1911,-2.1912,-2.1964,-2.1969,-2.1974,-2.1991,-2.1994,-2.1996,-2.1998,-2.2048,-2.2048,-2.2048,0,0,0,0,0,0,-2.1774,-2.1782,-2.1854,-2.1824,-2.1834,-2.1866,-2.1883,-2.1889,-2.1901,-2.1933,-2.1939,-2.1917,-2.1964,-2.197,-2.1992,-2.1994,-2.1997,-2.1999,-2.2048,-2.2048,-2.2048,-2.2028,0,0,0,0,0,0,-2.1772,-2.1782,-2.1789,-2.1824,-2.1835,-2.1873,-2.1884,-2.189,-2.1905,-2.1907,-2.194,-2.1945,-2.1964,-2.1988,-2.1994,-2.1997,-2.2001,-2.2048,-2.2048,-2.2048,-2.2029,-2.2027,-2.2026,0,0,0,0,0,-2.1768,-2.1781,-2.1789,-2.1797,-2.1845,-2.1873,-2.1879,-2.1902,-2.1905,-2.1912,-2.1932,-2.1944,-2.1992,-2.199,-2.1997,-2.2001,-2.2048,-2.2048,-2.2048,-2.2029,-2.2028,-2.2026,0,0,0,0,0,0,-2.1745,-2.1786,-2.1796,-2.182,-2.1843,-2.1878,-2.1887,-2.1899,-2.1921,-2.1922,-2.1948,-2.1955,-2.1973,-2.1989,-2.1986,-2.2015,-2.2021,-2.2022,-2.2005,-2.2003,-2.2002,-2.1998,-2.2003,0,0,0,0,0,-2.1742,-2.1763,-2.1797,-2.1815,-2.1826,-2.1854,-2.1867,-2.1882,-2.1907,-2.1916,-2.1938,-2.196,-2.1979,-2.1992,-2.2012,-2.203,-2.2037,-2.2036,-2.2034,-2.2033,-2.2035,-2.2043,-2.2043,-2.2048,-2.2048,-2.2048,0,0,-2.1738,-2.1763,-2.1774,-2.1811,-2.1831,-2.1849,-2.1862,-2.1882,-2.1896,-2.1919,-2.1941,-2.1957,-2.1982,-2.2002,-2.2012,-2.2016,-2.2034,-2.2033,-2.2032,-2.2034,-2.2043,-2.2043,-2.2042,-2.2048,-2.2048,-2.2048,0,0,-2.174,-2.1761,-2.1778,-2.1797,-2.1825,-2.1844,-2.1847,-2.188,-2.1891,-2.1914,-2.193,-2.1946,-2.198,-2.1997,-2.201,-2.2014,-2.2026,-2.202,-2.2014,-2.2022,-2.2022,-2.2022,-2.2022,-2.2022,-2.202,-2.202,-2.202,0,-2.1731,-2.1762,-2.1785,-2.1804,-2.1818,-2.1839,-2.1855,-2.1871,-2.1905,-2.1914,-2.1918,-2.1959,-2.1978,-2.2001,-2.2002,-2.2012,-2.2016,-2.2017,-2.202,-2.202,-2.202,-2.2021,-2.2021,-2.202,-2.202,-2.202,-2.202,0,-2.1748,-2.1768,-2.1778,-2.181,-2.1826,-2.1843,-2.1867,-2.1879,-2.1892,-2.1909,-2.193,-2.1952,-2.1977,-2.1983,-2.1996,-2.2007,-2.2008,-2.2015,-2.2022,-2.2019,-2.202,-2.202,-2.2018,-2.2018,-2.2019,-2.2019,0,0,-2.174,-2.1782,-2.1786,-2.1799,-2.1831,-2.1846,-2.1863,-2.1887,-2.1897,-2.1918,-2.1931,-2.1958,-2.1964,-2.1979,-2.1993,-2.2,-2.2001,-2.2007,-2.2008,-2.2005,-2.2013,-2.2007,-2.2008,-2.2008,-2.2008,-2.2008,-2.201,0,-2.1746,-2.1779,-2.1798,-2.1822,-2.184,-2.1858,-2.1872,-2.1892,-2.1907,-2.1923,-2.1939,-2.1957,-2.1965,-2.1974,-2.1981,-2.1999,-2.2003,-2.1999,-2.202,-2.202,-2.2014,-2.2008,-2.2003,-2.2005,-2.2011,-2.2011,-2.2011,0,-2.1759,-2.178,-2.1805,-2.1832,-2.1841,-2.1853,-2.1875,-2.1891,-2.1912,-2.1922,-2.1937,-2.1951,-2.1967,-2.1971,-2.1992,-2.1989,-2.1998,-2.2008,-2.2008,-2.2012,-2.2016,-2.2012,-2.2006,-2.2006,-2.2013,-2.2012,-2.2012,0,-2.175,-2.1784,-2.1803,-2.1814,-2.1847,-2.1854,-2.1868,-2.1889,-2.1902,-2.192,-2.1928,-2.1948,-2.1959,-2.1973,-2.1991,-2.1992,-2.2009,-2.2015,-2.2018,-2.2017,-2.2022,-2.2021,-2.2017,-2.2026,-2.2026,-2.2026,-2.2026,0,-2.1756,-2.1771,-2.1799,-2.1811,-2.1827,-2.1848,-2.1863,-2.1877,-2.1896,-2.1909,-2.1925,-2.1937,-2.196,-2.1974,-2.1987,-2.2002,-2.2007,-2.2015,-2.2018,-2.2014,-2.2013,-2.2021,-2.2021,-2.2026,-2.2026,-2.2026,-2.2026,0,-2.175,-2.177,-2.1792,-2.1819,-2.1826,-2.1837,-2.186,-2.1871,-2.1885,-2.1902,-2.1907,-2.193,-2.1947,-2.1966,-2.1989,-2.1998,-2.2012,-2.2017,-2.2005,-2.2007,-2.2008,-2.2008,-2.201,-2.2011,-2.2019,-2.2019,-2.2019,0,-2.1753,-2.1764,-2.1793,-2.1803,-2.1816,-2.1833,-2.1845,-2.1864,-2.1876,-2.1899,-2.1907,-2.1925,-2.1941,-2.1967,-2.1985,-2.2002,-2.2008,-2.2007,-2.2011,-2.2005,-2.2008,-2.2007,-2.2008,-2.2007,-2.2006,-2.2006,-2.2006,0,-2.1756,-2.1764,-2.1782,-2.1801,-2.1815,-2.1832,-2.1849,-2.1856,-2.1878,-2.189,-2.1908,-2.192,-2.1943,-2.1961,-2.1979,-2.1992,-2.2002,-2.2004,-2.2006,-2.2002,-2.1994,-2.1998,-2.2003,-2.2005,-2.2005,-2.2005,-2.2005,-2.2005,-2.1754,-2.1765,-2.1786,-2.1803,-2.1818,-2.1833,-2.1844,-2.1859,-2.1874,-2.1895,-2.1905,-2.1922,-2.194,-2.1966,-2.1978,-2.199,-2.1994,-2.1996,-2.1997,-2.1997,-2.1995,-2.1991,-2.1994,-2.1994,-2.1994,-2.1994,-2.1994,0,-2.1758,-2.1771,-2.1788,-2.181,-2.1824,-2.1832,-2.185,-2.186,-2.1875,-2.1891,-2.1906,-2.1925,-2.1941,-2.1959,-2.1976,-2.1982,-2.1987,-2.1986,-2.1986,-2.1988,-2.1992,-2.1989,-2.1981,-2.1981,-2.1981,-2.1981,-2.1981,-2.1981,-2.1762,-2.1779,-2.1789,-2.1812,-2.1825,-2.1843,-2.1852,-2.1865,-2.1878,-2.1898,-2.1912,-2.1923,-2.1939,-2.1957,-2.1971,-2.1976,-2.1981,-2.1978,-2.1984,-2.1987,-2.1988,-2.1989,-2.1987,-2.1979,-2.1979,-2.198,-2.198,-2.198]},{"header":{"parameterUnit":"m.s-1","parameterCategory":1,"la1":30.2991,"la2":30.254,"lo1":-89.0895,"lo2":-89.0444,"dy":0.0017,"dx":0.0017,"nx":28,"ny":28,"refTime":"2023-08-26T21:00:00:Z","depth":0,"parameterNumber":3,"parameterNumberName":"V-component_of_WINDS"},"data":[0,0,0,0,0,0,0,0,0,0,0,0,0,0,0,0,0,0,0,0,0,0,0,0,0,0,0,0,0,0,0,0,0,0,0,0,0,0,0,0,0,0,0,0,0,0,0,0,0,0,0,0,0,0,0,0,0,0,-2.401,-2.4014,0,-2.4373,-2.4377,-2.4381,-2.4434,-2.4431,-2.4428,-2.4425,-2.479,-2.4803,-2.4815,0,0,0,0,0,0,0,0,0,0,0,0,0,-2.3355,-2.3367,-2.4009,-2.4014,-2.4018,-2.4372,-2.4377,-2.4382,-2.4435,-2.4431,-2.4427,-2.4423,-2.4786,-2.4801,-2.4816,0,0,0,0,0,0,0,0,0,0,0,0,0,-2.3671,-2.3371,-2.4009,-2.4088,-2.4098,-2.4371,-2.4377,-2.4383,-2.4436,-2.4431,-2.4426,-2.4421,-2.4781,-2.48,-2.4819,-2.5036,0,0,-2.4877,-2.4886,0,0,0,0,0,0,0,0,-2.3653,-2.3695,-2.4071,-2.4083,-2.4095,-2.4353,-2.4281,-2.4602,-2.4437,-2.4307,-2.4425,-2.4419,-2.4648,-2.4678,-2.4757,-2.5053,-2.5069,-2.4879,-2.4891,-2.4899,-2.4904,0,0,0,0,0,0,0,-2.3631,-2.3679,-2.4153,-2.4077,-2.4091,-2.4103,-2.4142,-2.4342,-2.4501,-2.4318,-2.4323,-2.4366,-2.4654,-2.4738,-2.4766,-2.5074,-2.4878,-2.4895,-2.4907,-2.4915,-2.5568,-2.5574,0,0,0,0,0,0,-2.3596,-2.3661,-2.4141,-2.4164,-2.3858,-2.4119,-2.4163,-2.4275,-2.4499,-2.4528,-2.437,-2.4367,-2.4708,-2.4743,-2.4779,-2.5051,-2.4899,-2.4917,-2.4928,-2.5563,-2.557,-2.5576,0,0,0,0,0,0,-2.3581,-2.3638,-2.4127,-2.3914,-2.3977,-2.4135,-2.4261,-2.4285,-2.437,-2.4538,-2.4566,-2.4427,-2.4705,-2.4752,-2.4973,-2.5064,-2.4925,-2.4943,-2.5556,-2.5565,-2.5573,-2.5594,0,0,0,0,0,0,-2.3562,-2.3633,-2.3718,-2.3916,-2.3988,-2.4316,-2.4267,-2.4296,-2.4404,-2.4403,-2.4599,-2.4627,-2.4705,-2.4944,-2.4992,-2.5088,-2.4958,-2.5548,-2.556,-2.557,-2.5586,-2.5602,-2.5616,0,0,0,0,0,-2.3539,-2.3708,-2.3722,-2.378,-2.4099,-2.4321,-2.4363,-2.4451,-2.4411,-2.4498,-2.4605,-2.4621,-2.5045,-2.4966,-2.502,-2.5124,-2.5543,-2.5556,-2.5569,-2.5579,-2.5599,-2.5616,0,0,0,0,0,0,-2.3515,-2.3735,-2.3754,-2.3992,-2.4138,-2.433,-2.4442,-2.4469,-2.4628,-2.4621,-2.4722,-2.4766,-2.4982,-2.5074,-2.4982,-2.5346,-2.529,-2.5315,-2.5279,-2.53,-2.5315,-2.5289,-2.4974,0,0,0,0,0,-2.3537,-2.3702,-2.3884,-2.4077,-2.4149,-2.4283,-2.4383,-2.4439,-2.4593,-2.4654,-2.4779,-2.4926,-2.5093,-2.5201,-2.5363,-2.5598,-2.5642,-2.5696,-2.5711,-2.5723,-2.5744,-2.5877,-2.5904,-2.5619,-2.5619,-2.5619,0,0,-2.3585,-2.3726,-2.3823,-2.4076,-2.4195,-2.4362,-2.4335,-2.4511,-2.4636,-2.4681,-2.4899,-2.4994,-2.5165,-2.5394,-2.5501,-2.5478,-2.5832,-2.574,-2.5748,-2.5763,-2.5893,-2.592,-2.5944,-2.5628,-2.5626,-2.5625,0,0,-2.3759,-2.3881,-2.4057,-2.4178,-2.436,-2.4448,-2.449,-2.4679,-2.4745,-2.4965,-2.5003,-2.515,-2.5435,-2.5557,-2.5655,-2.5875,-2.5896,-2.5925,-2.6006,-2.6134,-2.6157,-2.6177,-2.6258,-2.6285,-2.5944,-2.5944,-2.5944,0,-2.3795,-2.4051,-2.4142,-2.432,-2.443,-2.448,-2.4658,-2.4769,-2.4994,-2.5069,-2.5039,-2.5399,-2.5517,-2.5777,-2.5831,-2.5908,-2.5959,-2.5904,-2.6146,-2.6168,-2.6188,-2.6266,-2.6296,-2.5947,-2.5947,-2.5946,-2.5946,0,-2.4087,-2.4263,-2.4382,-2.4602,-2.4725,-2.4901,-2.5018,-2.5131,-2.5176,-2.5266,-2.5489,-2.5633,-2.5827,-2.5892,-2.5935,-2.6158,-2.6138,-2.6126,-2.6072,-2.6216,-2.6292,-2.6322,-2.5951,-2.595,-2.5949,-2.5948,0,0,-2.4258,-2.4527,-2.457,-2.4671,-2.4876,-2.5013,-2.519,-2.5382,-2.5478,-2.563,-2.5782,-2.6022,-2.6013,-2.6125,-2.6183,-2.6295,-2.6463,-2.627,-2.6275,-2.6303,-2.6719,-2.673,-2.6763,-2.6476,-2.6482,-2.6487,-2.6706,0,-2.4458,-2.478,-2.4868,-2.514,-2.5305,-2.5354,-2.5509,-2.565,-2.5739,-2.589,-2.5986,-2.6157,-2.613,-2.6199,-2.6311,-2.6419,-2.6548,-2.6403,-2.6619,-2.6626,-2.6579,-2.6802,-2.6814,-2.7013,-2.6736,-2.6741,-2.6744,0,-2.4735,-2.4897,-2.5187,-2.5372,-2.5444,-2.5583,-2.5767,-2.591,-2.607,-2.6127,-2.6253,-2.63,-2.6486,-2.642,-2.6678,-2.6578,-2.667,-2.6736,-2.6746,-2.6772,-2.6696,-2.6837,-2.7079,-2.711,-2.6791,-2.6787,-2.6784,0,-2.4834,-2.5124,-2.5336,-2.542,-2.5641,-2.5737,-2.5833,-2.5989,-2.6099,-2.6259,-2.6331,-2.6508,-2.6606,-2.6742,-2.6835,-2.6778,-2.7086,-2.7027,-2.7139,-2.7137,-2.7204,-2.7199,-2.7468,-2.7258,-2.7258,-2.7257,-2.7256,0,-2.505,-2.5226,-2.5384,-2.5514,-2.5712,-2.581,-2.6003,-2.61,-2.6239,-2.6388,-2.6439,-2.6577,-2.6691,-2.6844,-2.6918,-2.7122,-2.7164,-2.7215,-2.7234,-2.7213,-2.7207,-2.7278,-2.7268,-2.7265,-2.7263,-2.7262,-2.726,0,-2.5196,-2.5308,-2.5543,-2.5733,-2.5785,-2.5923,-2.6085,-2.6213,-2.6303,-2.6491,-2.6541,-2.6681,-2.6865,-2.6971,-2.7201,-2.725,-2.7478,-2.7487,-2.7425,-2.7434,-2.7541,-2.753,-2.7866,-2.7917,-2.767,-2.7672,-2.7674,0,-2.5328,-2.5466,-2.5672,-2.5777,-2.5875,-2.6043,-2.6156,-2.6257,-2.6373,-2.6567,-2.6671,-2.6858,-2.7014,-2.7304,-2.7425,-2.7602,-2.7618,-2.7724,-2.7645,-2.7621,-2.7624,-2.7616,-2.7631,-2.7738,-2.774,-2.7742,-2.7744,0,-2.5552,-2.5602,-2.5765,-2.5949,-2.6084,-2.6232,-2.6379,-2.6461,-2.6586,-2.6713,-2.6903,-2.7024,-2.726,-2.7445,-2.7632,-2.7728,-2.7758,-2.7767,-2.7803,-2.7785,-2.7745,-2.7772,-2.7465,-2.776,-2.7758,-2.7757,-2.7756,-2.7755,-2.5698,-2.5823,-2.5989,-2.6169,-2.6291,-2.6428,-2.6559,-2.6666,-2.6827,-2.7029,-2.7077,-2.7277,-2.7434,-2.7689,-2.779,-2.7947,-2.7928,-2.7979,-2.7993,-2.8005,-2.801,-2.7717,-2.798,-2.798,-2.798,-2.7979,-2.7979,0,-2.5928,-2.6037,-2.6202,-2.6408,-2.655,-2.6566,-2.673,-2.6847,-2.7024,-2.7169,-2.7321,-2.754,-2.772,-2.7856,-2.804,-2.8139,-2.8157,-2.8184,-2.818,-2.8202,-2.8014,-2.7967,-2.8167,-2.8167,-2.8167,-2.8167,-2.8167,-2.8166,-2.6064,-2.6278,-2.6347,-2.6621,-2.6728,-2.6927,-2.7019,-2.7146,-2.7263,-2.7505,-2.7656,-2.7744,-2.7886,-2.8081,-2.8247,-2.8282,-2.8348,-2.8374,-2.8412,-2.8235,-2.8215,-2.8195,-2.8152,-2.8387,-2.8387,-2.8587,-2.8589,-2.859]}]]